Regional Weather Roundup
Issued by NWS Kansas City/Pleasant Hill, MO

Home | Current Version | Previous Version | Text Only | Print | Product List | Glossary On
Versions: 1 2 3 4 5 6 7 8 9 10 11 12 13 14 15 16 17 18 19 20 21 22 23 24 25 26 27 28 29 30 31 32 33 34 35 36 37 38 39 40 41 42 43 44 45 46 47 48 49 50
000
ASUS43 KEAX 300810
RWREAX

WEATHER ROUNDUP FOR EASTERN KANSAS AND NORTHWEST MISSOURI
NATIONAL WEATHER SERVICE KANSAS CITY/PLEASANT HILL MO
300 AM CDT THU MAR 30 2017

KSZ040-057-103>105-MOZ028-029-037-043-300900-
...KANSAS CITY METROPOLITAN AREA...

CITY           SKY/WX    TMP DP  RH WIND       PRES   REMARKS
K.C. INTL      CLOUDY    51  50  96 E13       29.57F
K.C. DOWNTOWN  CLOUDY    54  53  97 CALM      29.57F
LEES SUMMIT    FOG       53  53 100 SE8       29.58F VSB 3/4
OLATHE - IXD   PTCLDY    49  46  90 S8        29.59R
OLATHE - OJC   CLOUDY    51  48  89 S13G20    29.57F
LAWRENCE       CLOUDY    52  49  89 SE12      29.57S

$$

MOZ001>008-011>017-020>025-030>033-038>040-044>046-053-054-300900-
...NORTHERN AND CENTRAL MISSOURI...

CITY           SKY/WX    TMP DP  RH WIND       PRES   REMARKS
ST. JOSEPH     CLOUDY    50  49  96 E9        29.59S
MOSBY            N/A     52  50  93 E7        29.58F
WARRENSBURG    FOG       54  54 100 SE3       29.59F VSB 1/4
WHITEMAN AFB   FOG       54  54 100 S5        29.58F VSB 1/8
CLINTON        PTCLDY    54  54 100 S7        29.61S
SEDALIA        FOG       56  55  97 SW7       29.60F VSB 1/4
WARSAW         NOT AVBL
CHILLICOTHE      N/A     49  47  93 NE13G24   29.62F
KIRKSVILLE     CLOUDY    48  32  53 NE13      29.66F

$$

MOZ041-047>049-056>058-063>065-088>090-097-300900-
...EASTERN AND SOUTHERN MISSOURI...

CITY           SKY/WX    TMP DP  RH WIND       PRES   REMARKS
ST. LOUIS INTL TSTM      60  56  86 SE6       29.66F
SPIRIT OF STL  LGT RAIN  60  59  96 SE8       29.62F
COLUMBIA       LGT RAIN  59  59 100 S3        29.60F FOG
JEFFERSON CITY RAIN      63  59  87 E3        29.60F FOG
ROLLA          CLOUDY    62  61  96 SW10      29.62S
OSAGE BEACH    LGT RAIN  60  59  96 S5        29.63S
SPRINGFIELD    PTCLDY    51  49  92 S7        29.63F
BRANSON        PTCLDY    57  50  77 SW6       29.65F
JOPLIN         CLOUDY    49  44  83 SW15      29.64F
WEST PLAINS    MOCLDY    61  58  90 S6        29.65F

$$

IAZ060-094-KSZ022-034>040-054-083-096-NEZ052-066-093-300900-
...KANSAS...SOUTHEAST NEBRASKA AND IOWA...

CITY           SKY/WX    TMP DP  RH WIND       PRES   REMARKS
TOPEKA         CLOUDY    51  48  89 SE3       29.56S
MANHATTAN      CLOUDY    47  45  93 N7        29.56S
EMPORIA        CLOUDY    46  46 100 W10       29.54S FOG
CHANUTE        LGT RAIN  47  45  93 S14       29.58F FOG
WICHITA        DRIZZLE   44  44 100 NW16G28   29.64S FOG
OMAHA          CLOUDY    43  38  82 N15       29.73R
LINCOLN        CLOUDY    41  40  96 N22       29.72F WCI  31
FALLS CITY     CLOUDY    48  47  96 E10       29.60R
LAMONI         CLOUDY    44  43  96 E12G29    29.64F
DES MOINES     LGT RAIN  44  41  89 E14G24    29.75F

$$




USA.gov is the U.S. government's official web portal to all federal, state and local government web resources and services.